Torna al catalogo

STARLINK-38032

AttivoComunicazioniVLEO
NORAD 100020·PAYLOAD·🇺🇸 United States

Lanciato Jul 14, 2026 da Vandenberg Space Force Base

Loading…

Prossimi Passaggi (prossime 24 ore)

TLE

AggiornatoSource: Space-Track

Epoca: Sep 14, 2026, 06:18 UTC

1 A0020U 26160V   26257.26277784  .00188693  00000-0  11051-2 0  9997
2 A0020  70.0010 212.4090 0004153 268.7455  91.3269 15.77621652 11015

Traccia STARLINK-38032 in tempo reale con AllMySat

Download on the App Store